Regional Weather Roundup
Issued by NWS

Home | Current Version | Previous Version | Graphics & Text | Print | Product List | Glossary On
Versions: 1 2 3 4 5 6 7 8 9 10 11 12 13 14 15 16 17 18 19 20 21 22 23 24 25 26 27
000
ASUS45 KCYS 301610
RWRWY

WYOMING REGIONAL WEATHER ROUNDUP
NATIONAL WEATHER SERVICE CHEYENNE WY
1000 AM MDT FRI SEP 30 2016

NOTE:  "FAIR" INDICATES FEW OR NO CLOUDS BELOW 12,000 FEET
WITH NO SIGNIFICANT WEATHER AND/OR OBSTRUCTIONS TO VISIBILITY.

WYZ001-301700-
YELLOWSTONE NATIONAL PARK

CITY           SKY/WX    TMP DP  RH WIND       PRES   REMARKS
LK YELLOWSTONE   N/A     44  43  96 CALM      30.39R
W YELLOWSTONE  NOT AVBL

$$
WYZ002>013-054>058-071-098>099-301700-
NORTHERN WYOMING

CITY           SKY/WX    TMP DP  RH WIND       PRES   REMARKS
JACKSON        NOT AVBL
CODY           FAIR      66  43  42 W7        30.17S
GREYBULL       FAIR      60  51  72 VRB3      30.13S
WORLAND        FAIR      59  51  75 SW6       30.14R
SHERIDAN       FAIR      67  49  52 SE3       30.08R
BUFFALO        FAIR      68  46  45 E7        30.13S
GILLETTE       FAIR      65  50  58 SW18      30.09R
HULETT         FAIR      66  48  52 SW10G17   30.09F
NEWCASTLE      FAIR      64  45  48 SE9       30.15R

$$
WYZ014>020-022>026-101>103-301700-
CENTRAL WYOMING

CITY           SKY/WX    TMP DP  RH WIND       PRES   REMARKS
BIG PINEY      FAIR      50  43  77 CALM      30.36S
PINEDALE       FAIR      50  43  76 CALM      30.37S
DUBOIS         FAIR      57  43  58 N10       30.30S
LANDER         FAIR      59  49  69 E5        30.22S
RIVERTON       FAIR      58  47  66 SW6       30.23R
CASPER         FAIR      65  50  58 SW21      30.22R
DOUGLAS        CLOUDY    63  49  60 NW5       30.18F

$$
WYZ021-027>030-104>119-301700-
SOUTHERN WYOMING

CITY           SKY/WX    TMP DP  RH WIND       PRES   REMARKS
EVANSTON       CLOUDY    53  42  66 SE3       30.36R
FORT BRIDGER   FAIR      61  44  52 SW6       30.38R
ROCK SPRINGS   FAIR      57  45  64 W3        30.34S
DIXON          CLOUDY    59  47  66 SW10G18   30.38S
RAWLINS        PTSUNNY   57  46  66 SW8       30.34R
SARATOGA       CLOUDY    55  52  88 E13       30.38S
LARAMIE        CLOUDY    52  48  86 SW7       30.35S
CHEYENNE       LGT RAIN  59  48  67 CALM      30.29R
TORRINGTON     FAIR      58  43  57 S3        30.19S
PINE BLUFFS    PTSUNNY   61  45  55 NW6       30.25S

$$




USA.gov is the U.S. government's official web portal to all federal, state and local government web resources and services.